Regional Weather Roundup
Issued by NWS Nashville, TN

Current Version | Previous Version | Text Only | Print | Product List | Glossary Off
Versions: 1 2 3 4 5 6 7 8 9 10 11 12 13 14 15 16 17 18 19 20 21 22 23 24 25 26 27 28 29 30 31 32 33 34 35 36 37 38 39 40 41 42 43 44 45 46 47 48 49 50

000
ASUS44 KOHX 192115
RWROHX
MIDDLE TENNESSEE HOURLY WEATHER ROUNDUP
NATIONAL WEATHER SERVICE NASHVILLE TN
400 PM CDT FRI SEP 19 2014

NOTE: "FAIR" INDICATES FEW OR NO CLOUDS BELOW 12,000 FEET WITH
NO SIGNIFICANT WEATHER AND/OR OBSTRUCTIONS TO VISIBILITY.

* THESE REPORTS ARE NOT UNDER NWS QUALITY CONTROL AND MAY NOT
  REPORT WEATHER SUCH AS PRECIPITATION AND FOG.


TNZ005>011-023>034-057-059-062>066-078-080-192200
...NORTHERN MIDDLE TENNESSEE...

CITY           SKY/WX    TMP DP  RH WIND       PRES   REMARKS
CLARKSVILLE    MOSUNNY   84  60  44 MISG      30.02S
CROSSVILLE     MOSUNNY   77  60  55 S3        30.10F
GALLATIN         N/A     85  63  47 CALM      30.04F
DICKSON        PTSUNNY   82  64  54 E3        30.02F
LEBANON        SUNNY     85  61  44 CALM      30.01F
NASHVILLE      MOSUNNY   84  61  45 S5        30.02F
WEST NASHVILLE PTSUNNY   84  59  42 S6        30.01F
PORTLAND       MOSUNNY   81  61  50 VRB5      30.03F
SMYRNA         SUNNY     85  62  45 CALM      30.02F
SPARTA         SUNNY     82  64  54 CALM      30.05S
$$
TNZ056-058-060-061-075>077-079-093>097-192200
...SOUTHERN MIDDLE TENNESSEE...

CITY           SKY/WX    TMP DP  RH WIND       PRES   REMARKS
COLUMBIA       MOSUNNY   86  64  48 CALM      30.00S
FAYETTEVILLE   PTSUNNY   84  63  48 S7        30.03S
LEWISBURG      PTSUNNY   84  65  52 E6        30.01F
MCMINNVILLE    PTSUNNY   86  68  54 S5        30.04S
MURFREESBORO   MOSUNNY   84  61  45 CALM      30.01S
SHELBYVILLE    SUNNY     84  66  54 S5        30.03S
TULLAHOMA      MOSUNNY   82  63  51 S3        30.05S
WINCHESTER     PTSUNNY   86  64  48 S8        30.04S
$$


...KEY TO REMARKS...
VSB - VISIBILITY IN MILES
WCI - WIND CHILL INDEX
HX  - HEAT INDEX



USA.gov is the U.S. government's official web portal to all federal, state and local government web resources and services.